FLE649 CYYZ-CYWG

Flight info

Callsign FLE649
Flight time N/A
Altitude 38000
Route AVSEP7 MUSIT DCT SSM DCT AGLIN DCT GOVIT NORAK6
Aircraft B38M/M-SDE1FGHILORVWXY/HB1

Departure

Time 2026-05-07 14:40
Airport Toronto Pearson International Airport (CYYZ)

Arrival

Time N/A
Airport Winnipeg / James Armstrong Richardson International Airport (CYWG)
Time Latitude Longitude Altitude Speed Heading
2026-05-07 14:18 43.68577 -79.62374 570 ft 0 kts 145°
2026-05-07 14:31 43.68586 -79.62383 570 ft 2 kts 147°
2026-05-07 14:31 43.68600 -79.62395 573 ft 2 kts 149°
2026-05-07 14:31 43.68615 -79.62406 573 ft 2 kts 156°
2026-05-07 14:32 43.68626 -79.62412 568 ft 2 kts 174°
2026-05-07 14:32 43.68638 -79.62409 575 ft 2 kts 217°
2026-05-07 14:32 43.68645 -79.62399 568 ft 1 kts 233°
2026-05-07 14:32 43.68646 -79.62399 568 ft 0 kts 233°
2026-05-07 14:35 43.68633 -79.62424 569 ft 8 kts 235°
2026-05-07 14:35 43.68588 -79.62508 570 ft 13 kts 230°
2026-05-07 14:36 43.68536 -79.62588 568 ft 11 kts 232°
2026-05-07 14:36 43.68484 -79.62677 566 ft 11 kts 227°
2026-05-07 14:36 43.68489 -79.62766 566 ft 12 kts 317°
2026-05-07 14:36 43.68565 -79.62865 563 ft 18 kts 316°
2026-05-07 14:37 43.68667 -79.62997 568 ft 21 kts 317°
2026-05-07 14:37 43.68885 -79.63280 565 ft 22 kts 317°
2026-05-07 14:37 43.68995 -79.63424 567 ft 22 kts 316°
2026-05-07 14:38 43.69070 -79.63523 568 ft 10 kts 318°
2026-05-07 14:38 43.69126 -79.63518 569 ft 9 kts 45°
2026-05-07 14:38 43.69174 -79.63452 575 ft 11 kts 42°
2026-05-07 14:38 43.69252 -79.63422 570 ft 13 kts
2026-05-07 14:39 43.69341 -79.63422 574 ft 11 kts 349°
2026-05-07 14:39 43.69386 -79.63462 568 ft 11 kts 315°
2026-05-07 14:39 43.69376 -79.63562 567 ft 13 kts 227°
2026-05-07 14:39 43.69249 -79.63746 571 ft 55 kts 226°
2026-05-07 14:40 43.68833 -79.64349 565 ft 117 kts 226°
2026-05-07 14:40 43.68158 -79.65352 597 ft 164 kts 231°
2026-05-07 14:40 43.67357 -79.66550 1160 ft 172 kts 229°
2026-05-07 14:40 43.66556 -79.67741 2074 ft 168 kts 232°
2026-05-07 14:41 43.65831 -79.69053 2764 ft 178 kts 236°
2026-05-07 14:41 43.65080 -79.70486 3417 ft 191 kts 237°
2026-05-07 14:41 43.64284 -79.72039 4133 ft 203 kts 237°
2026-05-07 14:41 43.63450 -79.73701 4837 ft 219 kts 237°
2026-05-07 14:42 43.62548 -79.75488 5501 ft 236 kts 237°
2026-05-07 14:42 43.61857 -79.77604 6100 ft 252 kts 263°
2026-05-07 14:42 43.62052 -79.80011 6995 ft 254 kts 289°
2026-05-07 14:42 43.62927 -79.82113 8052 ft 257 kts 308°
2026-05-07 14:43 43.64063 -79.84051 8915 ft 262 kts 305°
2026-05-07 14:43 43.65182 -79.86044 9885 ft 264 kts 306°
2026-05-07 14:43 43.66331 -79.88069 10610 ft 274 kts 305°
2026-05-07 14:43 43.67545 -79.90195 11109 ft 290 kts 306°
2026-05-07 14:44 43.68831 -79.92433 11659 ft 303 kts 306°
2026-05-07 14:44 43.70426 -79.94399 12441 ft 312 kts 326°
2026-05-07 14:44 43.72348 -79.95815 13378 ft 314 kts 327°
2026-05-07 14:44 43.74298 -79.97248 14104 ft 320 kts 327°
2026-05-07 14:45 43.76273 -79.98681 14880 ft 322 kts 327°
2026-05-07 14:45 43.78274 -80.00121 15635 ft 325 kts 326°
2026-05-07 14:45 43.80299 -80.01571 16416 ft 328 kts 326°
2026-05-07 14:45 43.82328 -80.03021 17165 ft 331 kts 326°
2026-05-07 14:46 43.84389 -80.04494 17874 ft 334 kts 326°
2026-05-07 14:46 43.86462 -80.05976 18555 ft 337 kts 325°
2026-05-07 14:46 43.88532 -80.07456 19140 ft 340 kts 325°
2026-05-07 14:46 43.90669 -80.08985 19749 ft 343 kts 325°
2026-05-07 14:47 43.92744 -80.10605 20307 ft 340 kts 316°
2026-05-07 14:47 43.94332 -80.12906 20854 ft 333 kts 302°
2026-05-07 14:47 43.95802 -80.15489 21370 ft 338 kts 303°
2026-05-07 14:47 43.97228 -80.18039 21954 ft 340 kts 302°
2026-05-07 14:48 43.98675 -80.20661 22506 ft 344 kts 302°
2026-05-07 14:48 44.00127 -80.23320 23078 ft 347 kts 302°
2026-05-07 14:48 44.01586 -80.26007 23603 ft 350 kts 301°
2026-05-07 14:48 44.03054 -80.28720 24049 ft 353 kts 301°
2026-05-07 14:49 44.04528 -80.31450 24518 ft 355 kts 301°
2026-05-07 14:49 44.06012 -80.34202 24975 ft 357 kts 301°
2026-05-07 14:49 44.07506 -80.36975 25412 ft 359 kts 301°
2026-05-07 14:49 44.09006 -80.39763 25858 ft 361 kts 301°
2026-05-07 14:50 44.10515 -80.42569 26281 ft 364 kts 301°
2026-05-07 14:50 44.12036 -80.45401 26702 ft 366 kts 301°
2026-05-07 14:50 44.13572 -80.48245 27112 ft 370 kts 302°
2026-05-07 14:50 44.15351 -80.50875 27546 ft 375 kts 307°
2026-05-07 14:51 44.17166 -80.53506 27934 ft 377 kts 307°
2026-05-07 14:51 44.18979 -80.56172 28295 ft 380 kts 306°
2026-05-07 14:51 44.20800 -80.58871 28687 ft 383 kts 306°
2026-05-07 14:51 44.22624 -80.61588 29058 ft 385 kts 306°
2026-05-07 14:52 44.24461 -80.64331 29414 ft 388 kts 306°
2026-05-07 14:52 44.26304 -80.67088 29776 ft 390 kts 306°
2026-05-07 14:52 44.28162 -80.69870 30105 ft 393 kts 306°
2026-05-07 14:52 44.30035 -80.72676 30378 ft 396 kts 306°
2026-05-07 14:53 44.31918 -80.75501 30634 ft 399 kts 306°
2026-05-07 14:53 44.33784 -80.78304 30882 ft 401 kts 306°
2026-05-07 14:53 44.35717 -80.81209 31147 ft 404 kts 306°
2026-05-07 14:53 44.37633 -80.84093 31399 ft 407 kts 306°
2026-05-07 14:54 44.39540 -80.86966 31641 ft 409 kts 307°
2026-05-07 14:54 44.41479 -80.89890 31886 ft 412 kts 307°
2026-05-07 14:54 44.43434 -80.92841 32133 ft 414 kts 307°
2026-05-07 14:54 44.45396 -80.95807 32403 ft 416 kts 307°
2026-05-07 14:55 44.47363 -80.98782 32742 ft 416 kts 307°
2026-05-07 14:55 44.49329 -81.01760 33082 ft 416 kts 307°
2026-05-07 14:55 44.51294 -81.04739 33399 ft 417 kts 307°
2026-05-07 14:55 44.53261 -81.07724 33724 ft 417 kts 307°
2026-05-07 14:56 44.55228 -81.10712 34032 ft 417 kts 307°
2026-05-07 14:56 44.57194 -81.13703 34279 ft 418 kts 307°
2026-05-07 14:56 44.59162 -81.16700 34518 ft 418 kts 307°
2026-05-07 14:56 44.61137 -81.19710 34756 ft 419 kts 307°
2026-05-07 14:57 44.63111 -81.22721 34992 ft 420 kts 307°
2026-05-07 14:57 44.65091 -81.25745 35225 ft 420 kts 307°
2026-05-07 14:57 44.67068 -81.28769 35468 ft 421 kts 307°
2026-05-07 14:57 44.69050 -81.31803 35701 ft 422 kts 307°
2026-05-07 14:58 44.71033 -81.34842 35919 ft 422 kts 307°
2026-05-07 14:58 44.73021 -81.37892 36148 ft 423 kts 307°
2026-05-07 14:58 44.75005 -81.40940 36379 ft 423 kts 307°
2026-05-07 14:58 44.76999 -81.44006 36597 ft 424 kts 307°
2026-05-07 14:59 44.78989 -81.47069 36813 ft 424 kts 307°
2026-05-07 14:59 44.80979 -81.50136 37026 ft 425 kts 307°
2026-05-07 14:59 44.82976 -81.53216 37222 ft 426 kts 307°
2026-05-07 14:59 44.84972 -81.56299 37424 ft 426 kts 307°
2026-05-07 15:00 44.86968 -81.59384 37612 ft 427 kts 307°
2026-05-07 15:00 44.88967 -81.62479 37798 ft 427 kts 307°
2026-05-07 15:00 44.90968 -81.65578 37966 ft 427 kts 307°
2026-05-07 15:00 44.92965 -81.68676 37987 ft 427 kts 307°
2026-05-07 15:01 44.96962 -81.74885 37980 ft 427 kts 307°
2026-05-07 15:01 45.00952 -81.81095 37994 ft 427 kts 307°
2026-05-07 15:02 45.04925 -81.87282 37994 ft 427 kts 307°
2026-05-07 15:02 45.08915 -81.93510 37988 ft 427 kts 308°
2026-05-07 15:03 45.12909 -81.99756 37987 ft 428 kts 308°
2026-05-07 15:03 45.16900 -82.06013 37985 ft 428 kts 308°
2026-05-07 15:04 45.20892 -82.12284 37989 ft 428 kts 308°
2026-05-07 15:04 45.24879 -82.18562 37985 ft 428 kts 308°
2026-05-07 15:05 45.28865 -82.24853 37983 ft 428 kts 308°